sat.trackr.live / text

‹ back to catalog

STARLINK-5821

NORAD 57069 · 2023-088X

PAYLOAD ACTIVE UNKNOWN

§ Identity

Operator
Country
US
Launch date
2023-06-22
Launch site
AFWTR
Launch vehicle
Mass (kg)
RCS (m²)

Purposes: comms

External: N2YO · Heavens-Above · Gunter

§ Orbital elements

Epoch: 2026-05-25T01:09:53.756640Z

Period
94.27 min
Inclination
43.0055°
Eccentricity
0.0001070
Mean motion
15.27562749 rev/d
Perigee alt
482.4 km
Apogee alt
483.8 km
Semi-major
6,861.2 km
B*
-5.0460e-5
RAAN
25.3028°
Arg perigee
267.5291°
Mean anomaly
92.5438°
Rev number
16,200

§ Raw data

STARLINK-58211 57069U 23088X   26145.04853885 -.00001650  00000+0 -50460-4 0  99992 57069  43.0055  25.3028 0001070 267.5291  92.5438 15.27562749162004

JSON: /api/v1/satellites/57069 · /tle

For live sub-satellite position, see the globe view (requires WebGL).

§ Visibility from observer

Set your observer location to see the next 7 days of passes ≥ 10°. The values pass through the URL so the page stays shareable.

No JS? Fill the form by hand. The geolocation button needs JavaScript.